Terminal Aerodrome Forecast
Issued by NWS

Home | Current Version | Previous Version | Text Only | Print | Product List | Glossary On
Versions: 1 2 3 4 5 6 7 8 9 10 11 12 13 14 15 16 17 18
314
FTUS45 KABQ 241120
TAFLVS
TAF
KLVS 241120Z 2412/2512 21015KT P6SM SCT250
     FM241500 24025G35KT P6SM FEW250
     FM241800 25030G43KT P6SM FEW090 SCT250
     FM250200 23022G32KT P6SM SCT120 SCT250=

USA.gov is the U.S. government's official web portal to all federal, state and local government web resources and services.